Weather History for Banff, AB

Change the Weather History Date:

Thursday, July 18, 2013

  Actual Average Record
Temperature  
Mean Temperature 65 °F -  
Max Temperature 75 °F - - ()
Min Temperature 55 °F - - ()
Growing Degree Days 15 (Base 50)    
Moisture  
Dew Point 44 °F    
Average Humidity 49    
Maximum Humidity 69    
Minimum Humidity 26    
Precipitation  
Precipitation 0.00 in - - ()
Sea Level Pressure  
Sea Level Pressure 30.09 in    
Wind  
Wind Speed 5 mph ()    
Max Wind Speed 10 mph    
Max Gust Speed 18 mph    
T = Trace of Precipitation, MM = Missing Value Source: Averaged Metar Reports

Daily Weather History Graph

Daily Weather History Graph

Search for Another Location

Airport:

Trip Planner

Search our weather history database for the weather conditions in past years. The results will help you decide how hot, cold, wet, or windy it might be!

Date:

Astronomy

Jul. 18, 2013 Rise Set
Actual Time 5:48 AM MDT 9:47 PM MDT
Civil Twilight 5:04 AM MDT 10:31 PM MDT
Nautical Twilight 4:03 AM MDT 11:31 PM MDT
Astronomical Twilight 2:20 AM MDT 1:41 AM MDT
Moon 5:46 PM MDT (7/18) 1:49 AM MDT (7/18)
Length of Visible Light 17h 26m
Length of Day
15h 59m
Waxing Gibbous, 78% of the Moon is Illuminated
Jul 18
Waxing Gibbous
Jul 22
Full
Jul 29
Last Quarter
Aug 6
New
Aug 14
First Quarter

Hourly Weather History & Observations

Time (MDT) Temp. Dew Point Humidity Pressure Visibility Wind Dir Wind Speed Gust Speed Precip Events Conditions
12:00 AM 58.6 °F 48.6 °F 69% 30.06 in - SW 6.9 mph - N/A   Unknown
1:00 AM 58.6 °F 48.4 °F 69% 30.06 in - WSW 3.5 mph - N/A   Unknown
2:00 AM 58.3 °F 47.5 °F 67% 30.06 in - WSW 3.5 mph - N/A   Unknown
3:00 AM 59.5 °F 45.5 °F 60% 30.05 in - WSW 4.6 mph - N/A   Unknown
4:00 AM 57.0 °F 46.2 °F 67% 30.09 in - West 4.6 mph - N/A   Unknown
5:00 AM 56.7 °F 45.3 °F 66% 30.10 in - West 4.6 mph - N/A   Unknown
6:00 AM 56.3 °F 45.3 °F 67% 30.10 in - WSW 6.9 mph - N/A   Unknown
7:00 AM 56.3 °F 45.1 °F 66% 30.13 in - WSW 5.8 mph - N/A   Unknown
8:00 AM 55.9 °F 45.7 °F 68% 30.15 in - WSW 4.6 mph - N/A   Unknown
9:00 AM 58.3 °F 46.4 °F 65% 30.17 in - WSW 8.1 mph - N/A   Unknown
10:00 AM 62.2 °F 46.6 °F 57% 30.15 in - SW 6.9 mph - N/A   Unknown
11:00 AM 64.0 °F 44.4 °F 49% 30.15 in - SW 6.9 mph - N/A   Unknown
12:00 PM 65.8 °F 45.3 °F 47% 30.14 in - SW 5.8 mph - N/A   Unknown
1:00 PM 68.0 °F 43.7 °F 41% 30.12 in - WSW 5.8 mph - N/A   Unknown
2:00 PM 72.7 °F 41.0 °F 32% 30.10 in - SW 6.9 mph - N/A   Unknown
3:00 PM 73.6 °F 39.6 °F 29% 30.09 in - SW 8.1 mph - N/A   Unknown
4:00 PM 74.3 °F 41.2 °F 30% 30.07 in - SW 9.2 mph - N/A   Unknown
5:00 PM 75.4 °F 40.5 °F 28% 30.06 in - SW 10.4 mph 18.4 mph N/A   Unknown
6:00 PM 75.6 °F 38.3 °F 26% 30.04 in - SW 10.4 mph 17.3 mph N/A   Unknown
7:00 PM 75.0 °F 37.9 °F 26% 30.04 in - SW 8.1 mph 18.4 mph N/A   Unknown
8:00 PM 72.7 °F 39.0 °F 29% 30.04 in - West 3.5 mph - N/A   Unknown
9:00 PM 70.7 °F 40.5 °F 33% 30.05 in - West 3.5 mph - N/A   Unknown
10:00 PM 67.1 °F 41.4 °F 39% 30.07 in - WSW 3.5 mph - N/A   Unknown
11:00 PM 62.4 °F 43.0 °F 49% 30.09 in - SW 3.5 mph - N/A   Unknown